• In Belarus
  • List of Countries
  • For 7 days
  • Water Temperature
  • Satellite Maps
  • Weather Map
  • Weather Widgets
  • user-avatar
    Login

    Hourly Weather Horog

    Today, 19 July, Thursday

    Time Temperature Precipitation Wind Pressure Humidity
    00:00 +12°C° 0 mm 1 mps 493 mmHg 53%
    01:00 +11°C° 0 mm 1 mps 492 mmHg 55%
    02:00 +11°C° 0 mm 1 mps 492 mmHg 58%
    03:00 +10°C° 0 mm 1 mps 492 mmHg 60%
    04:00 +10°C° 0 mm 1 mps 491 mmHg 62%
    05:00 +8°C° 0 mm 0 mps 491 mmHg 65%
    06:00 +9°C° 0 mm 0 mps 492 mmHg 60%
    07:00 +11°C° 0 mm 1 mps 493 mmHg 55%
    08:00 +13°C° 0 mm 1 mps 493 mmHg 50%
    09:00 +14°C° 0 mm 1 mps 494 mmHg 46%
    10:00 +15°C° 0 mm 1 mps 494 mmHg 42%
    11:00 +16°C° 0 mm 2 mps 495 mmHg 37%
    12:00 +17°C° 0 mm 2 mps 495 mmHg 35%
    13:00 +18°C° 0 mm 2 mps 495 mmHg 33%
    14:00 +19°C° 0 mm 3 mps 496 mmHg 31%
    15:00 +19°C° 0 mm 3 mps 496 mmHg 32%
    16:00 +19°C° 0 mm 3 mps 495 mmHg 32%
    17:00 +19°C° 0 mm 4 mps 495 mmHg 33%
    18:00 +18°C° 0 mm 3 mps 495 mmHg 36%
    19:00 +17°C° 0 mm 3 mps 494 mmHg 40%
    20:00 +14°C° 0 mm 3 mps 494 mmHg 43%
    21:00 +14°C° 0 mm 2 mps 493 mmHg 46%
    22:00 +14°C° 0 mm 2 mps 493 mmHg 49%
    23:00 +13°C° 0 mm 2 mps 493 mmHg 52%

    Tomorrow, 20 July, Friday

    Time Temperature Precipitation Wind Pressure Humidity
    00:00 +12°C° 0 mm 1 mps 492 mmHg 55%
    01:00 +11°C° 0 mm 1 mps 492 mmHg 57%
    02:00 +11°C° 0 mm 1 mps 491 mmHg 59%
    03:00 +10°C° 0 mm 1 mps 491 mmHg 61%
    04:00 +10°C° 0 mm 1 mps 491 mmHg 63%
    05:00 +9°C° 0 mm 1 mps 491 mmHg 64%
    06:00 +11°C° 0 mm 1 mps 491 mmHg 61%
    07:00 +12°C° 0 mm 1 mps 492 mmHg 57%
    08:00 +13°C° 0 mm 1 mps 493 mmHg 53%
    09:00 +14°C° 0 mm 1 mps 493 mmHg 49%
    10:00 +15°C° 0 mm 1 mps 494 mmHg 44%
    11:00 +17°C° 0 mm 2 mps 494 mmHg 40%
    12:00 +18°C° 0 mm 2 mps 495 mmHg 36%
    13:00 +18°C° 0 mm 3 mps 495 mmHg 33%
    14:00 +19°C° 0 mm 3 mps 495 mmHg 29%
    15:00 +19°C° 0 mm 3 mps 495 mmHg 29%
    16:00 +19°C° 0 mm 3 mps 495 mmHg 29%
    17:00 +19°C° 0 mm 4 mps 495 mmHg 29%
    18:00 +18°C° 0 mm 3 mps 495 mmHg 33%
    19:00 +17°C° 0 mm 3 mps 494 mmHg 37%
    20:00 +14°C° 0 mm 3 mps 494 mmHg 40%
    21:00 +15°C° 0 mm 2 mps 493 mmHg 43%
    22:00 +14°C° 0 mm 2 mps 493 mmHg 47%
    23:00 +13°C° 0 mm 2 mps 493 mmHg 50%

    Day after tomorrow, 21 July, Saturday

    Time Temperature Precipitation Wind Pressure Humidity
    00:00 +12°C° 0 mm 1 mps 492 mmHg 52%
    01:00 +11°C° 0 mm 1 mps 492 mmHg 54%
    02:00 +11°C° 0 mm 1 mps 491 mmHg 57%
    03:00 +10°C° 0 mm 1 mps 491 mmHg 59%
    04:00 +10°C° 0 mm 1 mps 491 mmHg 61%
    05:00 +8°C° 0 mm 0 mps 491 mmHg 63%
    06:00 +10°C° 0 mm 0 mps 491 mmHg 58%
    07:00 +12°C° 0 mm 1 mps 492 mmHg 54%
    08:00 +13°C° 0 mm 1 mps 493 mmHg 49%
    09:00 +14°C° 0 mm 1 mps 494 mmHg 44%
    10:00 +16°C° 0 mm 1 mps 495 mmHg 38%
    11:00 +17°C° 0 mm 2 mps 495 mmHg 32%
    12:00 +18°C° 0 mm 2 mps 496 mmHg 30%
    13:00 +19°C° 0 mm 2 mps 496 mmHg 27%
    14:00 +20°C° 0 mm 3 mps 496 mmHg 24%
    15:00 +20°C° 0 mm 3 mps 496 mmHg 25%
    16:00 +20°C° 0 mm 3 mps 496 mmHg 26%
    17:00 +20°C° 0 mm 3 mps 496 mmHg 26%
    18:00 +19°C° 0 mm 3 mps 495 mmHg 30%
    19:00 +18°C° 0 mm 3 mps 495 mmHg 34%
    20:00 +16°C° 0 mm 2 mps 494 mmHg 38%
    21:00 +15°C° 0 mm 2 mps 494 mmHg 42%
    22:00 +14°C° 0 mm 2 mps 494 mmHg 45%
    23:00 +14°C° 0 mm 2 mps 493 mmHg 48%

    22 July, Sunday

    Time Temperature Precipitation Wind Pressure Humidity
    00:00 +13°C° 0 mm 1 mps 493 mmHg 50%
    01:00 +12°C° 0 mm 1 mps 492 mmHg 53%
    02:00 +12°C° 0 mm 1 mps 492 mmHg 55%
    03:00 +11°C° 0 mm 1 mps 491 mmHg 57%
    04:00 +11°C° 0 mm 1 mps 491 mmHg 59%
    05:00 +9°C° 0 mm 0 mps 491 mmHg 62%
    06:00 +11°C° 0 mm 1 mps 491 mmHg 57%
    07:00 +13°C° 0 mm 1 mps 492 mmHg 53%
    08:00 +14°C° 0 mm 1 mps 493 mmHg 49%
    09:00 +15°C° 0 mm 1 mps 494 mmHg 45%
    10:00 +18°C° 0 mm 1 mps 494 mmHg 40%
    11:00 +18°C° 0 mm 2 mps 495 mmHg 36%
    12:00 +19°C° 0 mm 2 mps 495 mmHg 33%
    13:00 +20°C° 0 mm 3 mps 495 mmHg 30%
    14:00 +21°C° 0 mm 3 mps 495 mmHg 27%
    15:00 +21°C° 0 mm 3 mps 495 mmHg 28%
    16:00 +21°C° 0 mm 3 mps 495 mmHg 29%
    17:00 +21°C° 0 mm 4 mps 495 mmHg 29%
    18:00 +19°C° 0 mm 3 mps 494 mmHg 33%
    19:00 +18°C° 0 mm 3 mps 494 mmHg 37%
    20:00 +17°C° 0 mm 3 mps 494 mmHg 41%
    21:00 +16°C° 0 mm 2 mps 493 mmHg 43%
    22:00 +15°C° 0 mm 2 mps 493 mmHg 46%
    23:00 +14°C° 0 mm 2 mps 493 mmHg 49%

    23 July, Monday

    Time Temperature Precipitation Wind Pressure Humidity
    00:00 +13°C° 0 mm 1 mps 492 mmHg 51%
    01:00 +13°C° 0 mm 1 mps 492 mmHg 53%
    02:00 +12°C° 0 mm 1 mps 491 mmHg 55%
    03:00 +12°C° 0 mm 1 mps 491 mmHg 57%
    04:00 +11°C° 0 mm 1 mps 491 mmHg 58%
    05:00 +11°C° 0 mm 1 mps 490 mmHg 60%
    06:00 +12°C° 0 mm 1 mps 491 mmHg 57%
    07:00 +13°C° 0 mm 1 mps 492 mmHg 54%
    08:00 +14°C° 0 mm 1 mps 493 mmHg 50%
    09:00 +15°C° 0 mm 1 mps 493 mmHg 46%
    10:00 +17°C° 0 mm 2 mps 494 mmHg 42%
    11:00 +18°C° 0 mm 2 mps 494 mmHg 38%
    12:00 +19°C° 0 mm 3 mps 494 mmHg 35%
    13:00 +20°C° 0 mm 3 mps 495 mmHg 32%
    14:00 +21°C° 0 mm 4 mps 495 mmHg 28%
    15:00 +21°C° 0 mm 4 mps 495 mmHg 29%
    16:00 +20°C° 0 mm 4 mps 494 mmHg 29%
    17:00 +20°C° 0 mm 4 mps 494 mmHg 29%
    18:00 +19°C° 0 mm 3 mps 494 mmHg 32%
    19:00 +18°C° 0 mm 3 mps 493 mmHg 36%
    20:00 +16°C° 0 mm 3 mps 493 mmHg 39%
    21:00 +16°C° 0 mm 2 mps 493 mmHg 41%
    22:00 +15°C° 0 mm 2 mps 492 mmHg 44%
    23:00 +14°C° 0 mm 2 mps 492 mmHg 46%

    24 July, Tuesday

    Time Temperature Precipitation Wind Pressure Humidity
    00:00 +13°C° 0 mm 1 mps 492 mmHg 48%
    01:00 +13°C° 0 mm 1 mps 492 mmHg 50%
    02:00 +12°C° 0 mm 1 mps 491 mmHg 51%
    03:00 +11°C° 0 mm 1 mps 491 mmHg 53%
    04:00 +11°C° 0 mm 1 mps 491 mmHg 55%
    05:00 +10°C° 0 mm 1 mps 490 mmHg 57%
    06:00 +11°C° 0 mm 1 mps 491 mmHg 52%
    07:00 +13°C° 0 mm 1 mps 492 mmHg 48%
    08:00 +14°C° 0 mm 1 mps 493 mmHg 44%
    09:00 +15°C° 0 mm 1 mps 493 mmHg 39%
    10:00 +16°C° 0 mm 2 mps 494 mmHg 35%
    11:00 +17°C° 0 mm 2 mps 495 mmHg 31%
    12:00 +18°C° 0 mm 3 mps 495 mmHg 29%
    13:00 +19°C° 0 mm 4 mps 495 mmHg 26%
    14:00 +20°C° 0 mm 4 mps 495 mmHg 24%
    15:00 +20°C° 0 mm 5 mps 495 mmHg 24%
    16:00 +20°C° 0 mm 5 mps 495 mmHg 24%
    17:00 +19°C° 0 mm 5 mps 495 mmHg 24%
    18:00 +18°C° 0 mm 4 mps 495 mmHg 27%
    19:00 +17°C° 0 mm 4 mps 494 mmHg 29%
    20:00 +14°C° 0 mm 3 mps 494 mmHg 32%
    21:00 +13°C° 0 mm 3 mps 494 mmHg 34%
    22:00 +14°C° 0 mm 2 mps 493 mmHg 36%
    23:00 +13°C° 0 mm 2 mps 493 mmHg 39%
    Show more